| time (UTC) | temp C | wind direction | speed KPH | gust KPH | rain 1hr cm | rain 24hr cm | rain mn cm | humidity % | barometer mb |
| 20260905185800 | 26 | 162 | 0.0 | 3.2 | 0.00 | 0.03 | 0.03 | 82 | 1012.3 |
| 20260905185254 | 27 | 162 | 3.2 | 8.0 | 0.00 | 0.03 | 0.03 | 81 | 1011.9 |
| 20260905184748 | 27 | 160 | 3.2 | 8.0 | 0.00 | 0.03 | 0.03 | 81 | 1012.2 |
| 20260905184247 | 27 | 161 | 4.8 | 4.8 | 0.00 | 0.03 | 0.03 | 79 | 1012.1 |
| 20260905183741 | 28 | 148 | 0.0 | 3.2 | 0.00 | 0.03 | 0.03 | 78 | 1012.2 |
| 20260905183237 | 27 | 149 | 3.2 | 4.8 | 0.00 | 0.03 | 0.03 | 79 | 1012.4 |
| 20260905182736 | 27 | 147 | 1.6 | 3.2 | 0.00 | 0.03 | 0.03 | 79 | 1012.3 |
| 20260905182236 | 28 | 149 | 1.6 | 4.8 | 0.00 | 0.03 | 0.03 | 78 | 1012.2 |
| 20260905181732 | 28 | 145 | 1.6 | 3.2 | 0.00 | 0.03 | 0.03 | 79 | 1012.3 |
| 20260905181231 | 28 | 149 | 3.2 | 11.3 | 0.00 | 0.03 | 0.03 | 78 | 1012.2 |
| 20260905180726 | 28 | 149 | 0.0 | 8.0 | 0.00 | 0.03 | 0.03 | 79 | 1012.1 |
| 20260905180220 | 27 | 145 | 4.8 | 8.0 | 0.00 | 0.03 | 0.03 | 79 | 1012.1 |
| 20260905175715 | 27 | 147 | 1.6 | 4.8 | 0.00 | 0.03 | 0.03 | 79 | 1012.1 |
| 20260905175209 | 28 | 143 | 6.4 | 8.0 | 0.00 | 0.03 | 0.03 | 78 | 1012.2 |
| 20260905174705 | 27 | 147 | 3.2 | 4.8 | 0.00 | 0.03 | 0.03 | 79 | 1011.9 |
| 20260905174201 | 27 | 149 | 4.8 | 8.0 | 0.00 | 0.03 | 0.03 | 81 | 1011.9 |
| 20260905173657 | 28 | 147 | 3.2 | 4.8 | 0.00 | 0.03 | 0.03 | 78 | 1011.9 |
| 20260905173152 | 29 | 147 | 3.2 | 4.8 | 0.00 | 0.03 | 0.03 | 77 | 1011.9 |
| 20260905172651 | 28 | 147 | 1.6 | 4.8 | 0.00 | 0.03 | 0.03 | 78 | 1011.8 |
| 20260905172145 | 28 | 149 | 3.2 | 9.7 | 0.00 | 0.03 | 0.03 | 77 | 1012.1 |
| 20260905171641 | 28 | 138 | 3.2 | 8.0 | 0.00 | 0.03 | 0.03 | 78 | 1011.8 |
| 20260905171137 | 28 | 147 | 0.0 | 4.8 | 0.00 | 0.03 | 0.03 | 79 | 1011.9 |
| 20260905170634 | 28 | 147 | 1.6 | 8.0 | 0.00 | 0.03 | 0.03 | 79 | 1011.8 |
| 20260905170129 | 29 | 147 | 4.8 | 8.0 | 0.00 | 0.03 | 0.03 | 76 | 1012.1 |
| 20260905165623 | 30 | 148 | 3.2 | 3.2 | 0.00 | 0.03 | 0.03 | 75 | 1012.1 |
| 20260905165119 | 29 | 148 | 1.6 | 3.2 | 0.00 | 0.03 | 0.03 | 77 | 1011.9 |
| 20260905164614 | 30 | 150 | 4.8 | 4.8 | 0.00 | 0.03 | 0.03 | 74 | 1012.2 |
| 20260905164113 | 28 | 149 | 1.6 | 3.2 | 0.00 | 0.03 | 0.03 | 77 | 1011.9 |
| 20260905163609 | 28 | 147 | 3.2 | 8.0 | 0.00 | 0.03 | 0.03 | 78 | 1012.2 |
| 20260905163106 | 28 | 168 | 1.6 | 8.0 | 0.00 | 0.03 | 0.03 | 79 | 1012.4 |
| 20260905162602 | 28 | 149 | 1.6 | 4.8 | 0.00 | 0.03 | 0.03 | 78 | 1012.4 |
| 20260905162101 | 28 | 150 | 3.2 | 8.0 | 0.00 | 0.03 | 0.03 | 79 | 1011.9 |
| 20260905161555 | 28 | 149 | 1.6 | 3.2 | 0.00 | 0.03 | 0.03 | 78 | 1012.2 |
| 20260905161053 | 27 | 149 | 1.6 | 3.2 | 0.00 | 0.03 | 0.03 | 81 | 1012.3 |
| 20260905160552 | 27 | 148 | 1.6 | 4.8 | 0.00 | 0.03 | 0.03 | 81 | 1012.3 |
| 20260905160052 | 27 | 147 | 1.6 | 3.2 | 0.00 | 0.03 | 0.03 | 82 | 1012.2 |
| 20260905155552 | 27 | 147 | 3.2 | 4.8 | 0.00 | 0.03 | 0.03 | 82 | 1012.2 |
| 20260905155050 | 27 | 147 | 4.8 | 4.8 | 0.00 | 0.03 | 0.03 | 82 | 1012.1 |
| 20260905154545 | 28 | 140 | 4.8 | 4.8 | 0.00 | 0.03 | 0.03 | 81 | 1012.2 |
| 20260905154041 | 27 | 148 | 1.6 | 3.2 | 0.00 | 0.03 | 0.03 | 83 | 1011.8 |
| 20260905153537 | 26 | 151 | 3.2 | 8.0 | 0.00 | 0.03 | 0.03 | 84 | 1012.2 |
| 20260905153037 | 27 | 151 | 1.6 | 8.0 | 0.00 | 0.03 | 0.03 | 83 | 1012.1 |
| 20260905152531 | 27 | 150 | 1.6 | 4.8 | 0.00 | 0.03 | 0.03 | 83 | 1011.8 |
| 20260905152027 | 27 | 150 | 1.6 | 4.8 | 0.00 | 0.03 | 0.03 | 83 | 1011.7 |
| 20260905151522 | 27 | 150 | 3.2 | 14.5 | 0.00 | 0.03 | 0.03 | 83 | 1011.8 |
| 20260905151017 | 27 | 149 | 3.2 | 4.8 | 0.00 | 0.03 | 0.03 | 83 | 1011.8 |
| 20260905150512 | 26 | 148 | 0.0 | 3.2 | 0.00 | 0.03 | 0.03 | 86 | 1011.5 |
| 20260905150010 | 26 | 149 | 3.2 | 4.8 | 0.00 | 0.03 | 0.03 | 87 | 1011.7 |
| 20260905145509 | 26 | 149 | 4.8 | 4.8 | 0.00 | 0.03 | 0.03 | 87 | 1011.4 |
| 20260905145003 | 26 | 152 | 8.0 | 12.9 | 0.00 | 0.03 | 0.03 | 86 | 1011.3 |
| 20260905144458 | 26 | 156 | 4.8 | 8.0 | 0.00 | 0.03 | 0.03 | 86 | 1011.6 |
| 20260905143957 | 25 | 148 | 1.6 | 11.3 | 0.00 | 0.03 | 0.03 | 88 | 1011.4 |
| 20260905143456 | 25 | 160 | 4.8 | 9.7 | 0.00 | 0.03 | 0.03 | 88 | 1011.5 |
| 20260905142951 | 25 | 148 | 1.6 | 4.8 | 0.00 | 0.03 | 0.03 | 89 | 1011.3 |
| 20260905142450 | 25 | 149 | 0.0 | 4.8 | 0.00 | 0.03 | 0.03 | 90 | 1011.5 |
| 20260905141945 | 25 | 150 | 3.2 | 3.2 | 0.00 | 0.03 | 0.03 | 91 | 1011.6 |
| 20260905141440 | 25 | 149 | 4.8 | 4.8 | 0.00 | 0.03 | 0.03 | 92 | 1011.4 |
| 20260905140936 | 23 | 149 | 1.6 | 4.8 | 0.00 | 0.03 | 0.03 | 95 | 1011.3 |
| 20260905140431 | 23 | 150 | 0.0 | 3.2 | 0.00 | 0.03 | 0.03 | 96 | 1011.5 |
| 20260905135930 | 23 | 109 | 3.2 | 4.8 | 0.00 | 0.03 | 0.03 | 97 | 1011.5 |
| 20260905135426 | 23 | 149 | 3.2 | 4.8 | 0.00 | 0.03 | 0.03 | 97 | 1011.3 |
| 20260905134921 | 23 | 148 | 1.6 | 4.8 | 0.00 | 0.03 | 0.03 | 97 | 1011.2 |
| 20260905134420 | 23 | 147 | 0.0 | 1.6 | 0.00 | 0.03 | 0.03 | 98 | 1011.4 |
| 20260905133915 | 23 | 136 | 1.6 | 4.8 | 0.00 | 0.03 | 0.03 | 98 | 1011.3 |
| 20260905133415 | 23 | 148 | 0.0 | 4.8 | 0.00 | 0.03 | 0.03 | 98 | 1011.1 |
| 20260905132914 | 23 | 147 | 1.6 | 3.2 | 0.00 | 0.03 | 0.03 | 98 | 1011.5 |
| 20260905132410 | 23 | 148 | 0.0 | 3.2 | 0.00 | 0.03 | 0.03 | 99 | 1011.3 |
| 20260905131905 | 23 | 149 | 3.2 | 4.8 | 0.00 | 0.03 | 0.03 | 99 | 1011.4 |
| 20260905131400 | 23 | 150 | 3.2 | 4.8 | 0.00 | 0.03 | 0.03 | 99 | 1011.6 |
| 20260905130855 | 23 | 149 | 3.2 | 4.8 | 0.00 | 0.03 | 0.03 | 99 | 1011.6 |
| 20260905130354 | 23 | 149 | 1.6 | 4.8 | 0.00 | 0.03 | 0.03 | 99 | 1011.2 |
| 20260905125849 | 23 | 149 | 4.8 | 4.8 | 0.00 | 0.03 | 0.03 | 99 | 1010.8 |
| 20260905125344 | 23 | 150 | 1.6 | 3.2 | 0.00 | 0.03 | 0.03 | 99 | 1010.7 |
| 20260905124840 | 23 | 149 | 0.0 | 1.6 | 0.00 | 0.03 | 0.03 | 99 | 1010.6 |
| 20260905124336 | 23 | 150 | 0.0 | 1.6 | 0.00 | 0.03 | 0.03 | 99 | 1010.6 |
| 20260905123836 | 23 | 149 | 0.0 | 1.6 | 0.00 | 0.03 | 0.03 | 99 | 1010.4 |
| 20260905123333 | 23 | 145 | 1.6 | 1.6 | 0.00 | 0.03 | 0.03 | 99 | 1010.5 |
| 20260905122833 | 23 | 149 | 0.0 | 3.2 | 0.00 | 0.03 | 0.03 | 99 | 1010.6 |
| 20260905122332 | 23 | 149 | 1.6 | 1.6 | 0.00 | 0.03 | 0.03 | 99 | 1010.5 |
| 20260905121827 | 23 | 150 | 0.0 | 1.6 | 0.00 | 0.03 | 0.03 | 99 | 1010.4 |
| 20260905121324 | 23 | 150 | 0.0 | 0.0 | 0.00 | 0.03 | 0.03 | 99 | 1010.7 |
| 20260905120822 | 23 | 149 | 0.0 | 0.0 | 0.00 | 0.03 | 0.03 | 99 | 1010.5 |
| 20260905120317 | 23 | 147 | 0.0 | 0.0 | 0.00 | 0.03 | 0.03 | 99 | 1010.2 |
| 20260905115812 | 23 | 149 | 0.0 | 0.0 | 0.00 | 0.03 | 0.03 | 99 | 1010.4 |
| 20260905115312 | 23 | 148 | 0.0 | 0.0 | 0.00 | 0.03 | 0.03 | 99 | 1010.4 |
| 20260905114812 | 23 | 147 | 0.0 | 0.0 | 0.00 | 0.03 | 0.03 | 99 | 1010.3 |
| 20260905114311 | 23 | 151 | 0.0 | 0.0 | 0.00 | 0.03 | 0.03 | 99 | 1010.2 |
| 20260905113810 | 23 | 147 | 0.0 | 0.0 | 0.00 | 0.03 | 0.03 | 99 | 1010.0 |
| 20260905113306 | 23 | 146 | 0.0 | 0.0 | 0.00 | 0.03 | 0.03 | 99 | 1010.0 |
| 20260905112801 | 23 | 186 | 0.0 | 0.0 | 0.00 | 0.03 | 0.03 | 99 | 1010.0 |
| 20260905112256 | 23 | 147 | 0.0 | 0.0 | 0.00 | 0.03 | 0.03 | 99 | 1009.9 |
| 20260905111750 | 23 | 183 | 0.0 | 0.0 | 0.00 | 0.03 | 0.03 | 99 | 1009.8 |
| 20260905111245 | 23 | 148 | 0.0 | 0.0 | 0.00 | 0.03 | 0.03 | 99 | 1009.8 |
| 20260905110744 | 23 | 147 | 0.0 | 1.6 | 0.00 | 0.03 | 0.03 | 99 | 1009.8 |
| 20260905110238 | 23 | 146 | 0.0 | 1.6 | 0.00 | 0.03 | 0.03 | 99 | 1009.7 |
| 20260905105734 | 23 | 148 | 1.6 | 1.6 | 0.00 | 0.03 | 0.03 | 99 | 1009.7 |
| 20260905105233 | 24 | 149 | 1.6 | 3.2 | 0.00 | 0.03 | 0.03 | 99 | 1009.6 |
| 20260905104728 | 23 | 149 | 0.0 | 0.0 | 0.00 | 0.03 | 0.03 | 99 | 1009.5 |
| 20260905104224 | 23 | 147 | 0.0 | 0.0 | 0.00 | 0.03 | 0.03 | 99 | 1009.5 |
| 20260905103719 | 23 | 162 | 0.0 | 0.0 | 0.00 | 0.03 | 0.03 | 99 | 1009.5 |
| 20260905103215 | 23 | 151 | 0.0 | 0.0 | 0.00 | 0.03 | 0.03 | 99 | 1009.6 |
| 20260905102710 | 23 | 149 | 0.0 | 0.0 | 0.00 | 0.03 | 0.03 | 99 | 1009.7 |
| 20260905102207 | 23 | 186 | 0.0 | 0.0 | 0.00 | 0.03 | 0.03 | 99 | 1009.4 |
| 20260905101706 | 23 | 149 | 0.0 | 0.0 | 0.00 | 0.03 | 0.03 | 99 | 1009.6 |
| 20260905101204 | 24 | 149 | 0.0 | 0.0 | 0.00 | 0.03 | 0.03 | 99 | 1009.4 |
| 20260905100701 | 24 | 147 | 0.0 | 0.0 | 0.00 | 0.03 | 0.03 | 99 | 1009.5 |
| 20260905100155 | 24 | 147 | 0.0 | 0.0 | 0.00 | 0.03 | 0.03 | 99 | 1009.6 |
| 20260905095654 | 24 | 147 | 0.0 | 0.0 | 0.00 | 0.03 | 0.03 | 99 | 1009.5 |
| 20260905095149 | 24 | 152 | 0.0 | 0.0 | 0.00 | 0.03 | 0.03 | 99 | 1009.4 |
| 20260905094644 | 24 | 147 | 0.0 | 0.0 | 0.00 | 0.03 | 0.03 | 99 | 1009.5 |
| 20260905094143 | 24 | 147 | 0.0 | 0.0 | 0.00 | 0.03 | 0.03 | 99 | 1009.5 |
| 20260905093638 | 24 | 145 | 0.0 | 0.0 | 0.00 | 0.03 | 0.03 | 99 | 1009.7 |
| 20260905093135 | 24 | 147 | 0.0 | 0.0 | 0.00 | 0.03 | 0.03 | 99 | 1009.6 |
| 20260905092634 | 24 | 151 | 0.0 | 0.0 | 0.00 | 0.03 | 0.03 | 99 | 1009.7 |
| 20260905092130 | 24 | 147 | 0.0 | 0.0 | 0.00 | 0.03 | 0.03 | 99 | 1009.5 |
| 20260905091630 | 24 | 148 | 0.0 | 0.0 | 0.00 | 0.03 | 0.03 | 99 | 1009.3 |
| 20260905091130 | 24 | 147 | 0.0 | 0.0 | 0.00 | 0.03 | 0.03 | 99 | 1009.5 |
| 20260905090625 | 24 | 147 | 0.0 | 0.0 | 0.00 | 0.03 | 0.03 | 99 | 1009.3 |
| 20260905090120 | 24 | 147 | 0.0 | 0.0 | 0.00 | 0.03 | 0.03 | 99 | 1009.6 |
| 20260905085619 | 24 | 186 | 0.0 | 0.0 | 0.00 | 0.03 | 0.03 | 99 | 1009.4 |
| 20260905085114 | 24 | 151 | 0.0 | 0.0 | 0.18 | 0.03 | 0.03 | 99 | 1009.4 |
| 20260905084614 | 24 | 147 | 0.0 | 0.0 | 0.18 | 0.03 | 0.03 | 99 | 1009.6 |
| 20260905084109 | 24 | 147 | 0.0 | 0.0 | 0.00 | 0.00 | 0.00 | 99 | 1009.6 |
| 20260905083603 | 23 | 145 | 0.0 | 0.0 | 0.00 | 0.00 | 0.00 | 99 | 1009.3 |
| 20260905083100 | 23 | 147 | 0.0 | 0.0 | 0.00 | 0.00 | 0.00 | 99 | 1009.6 |
| 20260905082555 | 23 | 147 | 0.0 | 0.0 | 0.00 | 0.00 | 0.00 | 99 | 1009.4 |
| 20260905082051 | 23 | 186 | 0.0 | 0.0 | 0.00 | 0.00 | 0.00 | 99 | 1009.6 |
| 20260905081550 | 24 | 152 | 0.0 | 0.0 | 0.00 | 0.00 | 0.00 | 99 | 1009.6 |
| 20260905081045 | 23 | 162 | 0.0 | 0.0 | 0.00 | 0.00 | 0.00 | 99 | 1009.5 |
| 20260905080544 | 23 | 147 | 0.0 | 0.0 | 0.00 | 0.00 | 0.00 | 99 | 1009.5 |
| 20260905080039 | 23 | 147 | 0.0 | 0.0 | 0.00 | 0.00 | 0.00 | 99 | 1009.4 |
| 20260905075533 | 24 | 149 | 0.0 | 0.0 | 0.00 | 0.00 | 0.00 | 99 | 1009.2 |
| 20260905075033 | 24 | 152 | 0.0 | 0.0 | 0.00 | 0.00 | 0.00 | 99 | 1009.6 |
| 20260905074527 | 24 | 147 | 0.0 | 0.0 | 0.00 | 0.00 | 0.00 | 99 | 1009.5 |
| 20260905074023 | 24 | 147 | 0.0 | 0.0 | 0.00 | 0.00 | 0.00 | 99 | 1009.5 |
| 20260905073518 | 24 | 186 | 0.0 | 0.0 | 0.00 | 0.00 | 0.00 | 99 | 1009.5 |
| 20260905073014 | 24 | 147 | 0.0 | 0.0 | 0.00 | 0.00 | 0.00 | 99 | 1009.6 |
| 20260905072513 | 24 | 163 | 0.0 | 0.0 | 0.00 | 0.00 | 0.00 | 98 | 1009.7 |
| 20260905072009 | 24 | 152 | 0.0 | 0.0 | 0.00 | 0.00 | 0.00 | 98 | 1009.8 |
| 20260905071506 | 25 | 129 | 0.0 | 0.0 | 0.00 | 0.00 | 0.00 | 98 | 1009.6 |
| 20260905071000 | 25 | 103 | 0.0 | 0.0 | 0.00 | 0.00 | 0.00 | 98 | 1009.8 |
| 20260905070456 | 25 | 147 | 0.0 | 0.0 | 0.00 | 0.00 | 0.00 | 97 | 1009.8 |
| 20260905065955 | 25 | 147 | 0.0 | 0.0 | 0.00 | 0.00 | 0.00 | 97 | 1009.8 |
| 20260905065454 | 25 | 147 | 0.0 | 0.0 | 0.00 | 0.00 | 0.00 | 97 | 1009.8 |
| 20260905064949 | 25 | 149 | 0.0 | 0.0 | 0.00 | 0.00 | 0.00 | 97 | 1009.7 |
| 20260905064444 | 25 | 147 | 0.0 | 0.0 | 0.00 | 0.00 | 0.00 | 97 | 1009.7 |
| 20260905063939 | 25 | 145 | 0.0 | 0.0 | 0.00 | 0.00 | 0.00 | 96 | 1009.6 |
| 20260905063434 | 25 | 147 | 0.0 | 0.0 | 0.00 | 0.00 | 0.00 | 96 | 1009.7 |
| 20260905062930 | 25 | 147 | 0.0 | 0.0 | 0.00 | 0.00 | 0.00 | 96 | 1009.9 |
| 20260905062430 | 25 | 149 | 0.0 | 0.0 | 0.00 | 0.00 | 0.00 | 96 | 1009.8 |
| 20260905061925 | 25 | 143 | 0.0 | 0.0 | 0.00 | 0.00 | 0.00 | 95 | 1009.9 |
| 20260905061419 | 25 | 147 | 0.0 | 0.0 | 0.00 | 0.00 | 0.00 | 95 | 1009.9 |
| 20260905060918 | 25 | 163 | 0.0 | 0.0 | 0.00 | 0.00 | 0.00 | 94 | 1010.1 |
| 20260905060415 | 26 | 147 | 0.0 | 0.0 | 0.00 | 0.00 | 0.00 | 94 | 1010.1 |
| 20260905055914 | 26 | 149 | 0.0 | 0.0 | 0.00 | 0.00 | 0.00 | 94 | 1010.0 |
| 20260905055409 | 26 | 147 | 0.0 | 3.2 | 0.00 | 0.00 | 0.00 | 94 | 1009.7 |
| 20260905054908 | 26 | 148 | 0.0 | 0.0 | 0.00 | 0.00 | 0.00 | 94 | 1010.1 |
| 20260905054404 | 26 | 147 | 0.0 | 0.0 | 0.00 | 0.00 | 0.00 | 94 | 1010.0 |
| 20260905053904 | 26 | 143 | 0.0 | 0.0 | 0.00 | 0.00 | 0.00 | 93 | 1010.1 |
| 20260905053359 | 26 | 152 | 0.0 | 0.0 | 0.00 | 0.00 | 0.00 | 93 | 1010.0 |
| 20260905052855 | 26 | 147 | 0.0 | 0.0 | 0.00 | 0.00 | 0.00 | 92 | 1009.8 |
| 20260905052354 | 26 | 149 | 0.0 | 0.0 | 0.00 | 0.00 | 0.00 | 92 | 1009.8 |
| 20260905051854 | 26 | 149 | 0.0 | 0.0 | 0.00 | 0.00 | 0.00 | 92 | 1010.1 |
| 20260905051350 | 26 | 148 | 0.0 | 0.0 | 0.00 | 0.00 | 0.00 | 92 | 1009.9 |
| 20260905050847 | 26 | 147 | 0.0 | 0.0 | 0.00 | 0.00 | 0.00 | 91 | 1009.8 |
| 20260905050343 | 26 | 149 | 0.0 | 0.0 | 0.00 | 0.00 | 0.00 | 91 | 1010.1 |
| 20260905045843 | 26 | 148 | 0.0 | 0.0 | 0.00 | 0.00 | 0.00 | 91 | 1010.0 |
| 20260905045338 | 27 | 147 | 0.0 | 0.0 | 0.00 | 0.00 | 0.00 | 90 | 1009.8 |
| 20260905044833 | 27 | 148 | 0.0 | 0.0 | 0.00 | 0.00 | 0.00 | 90 | 1009.7 |
| 20260905044329 | 27 | 147 | 0.0 | 1.6 | 0.00 | 0.00 | 0.00 | 89 | 1009.8 |
| 20260905043827 | 27 | 147 | 0.0 | 3.2 | 0.00 | 0.00 | 0.00 | 89 | 1009.7 |
| 20260905043322 | 27 | 145 | 0.0 | 1.6 | 0.00 | 0.00 | 0.00 | 89 | 1009.8 |
| 20260905042817 | 27 | 139 | 1.6 | 3.2 | 0.00 | 0.00 | 0.00 | 88 | 1009.7 |
| 20260905042316 | 27 | 145 | 1.6 | 3.2 | 0.00 | 0.00 | 0.00 | 88 | 1009.7 |
| 20260905041812 | 27 | 152 | 0.0 | 1.6 | 0.00 | 0.00 | 0.00 | 88 | 1010.0 |
| 20260905041308 | 27 | 143 | 1.6 | 1.6 | 0.00 | 0.00 | 0.00 | 87 | 1009.7 |
| 20260905040803 | 27 | 153 | 0.0 | 3.2 | 0.00 | 0.00 | 0.00 | 87 | 1009.9 |
| 20260905040302 | 27 | 145 | 1.6 | 3.2 | 0.00 | 0.00 | 0.00 | 87 | 1009.8 |
| 20260905035756 | 27 | 145 | 3.2 | 4.8 | 0.00 | 0.00 | 0.00 | 87 | 1009.7 |
| 20260905035252 | 27 | 145 | 1.6 | 3.2 | 0.00 | 0.00 | 0.00 | 87 | 1009.9 |
| 20260905034749 | 27 | 147 | 0.0 | 1.6 | 0.00 | 0.00 | 0.00 | 88 | 1010.0 |
| 20260905034248 | 27 | 144 | 0.0 | 8.0 | 0.00 | 0.00 | 0.00 | 87 | 1009.8 |
| 20260905033747 | 26 | 147 | 0.0 | 1.6 | 0.00 | 0.00 | 0.00 | 91 | 1009.9 |
| 20260905033243 | 26 | 153 | 0.0 | 0.0 | 0.00 | 0.00 | 0.00 | 93 | 1010.4 |
| 20260905032742 | 26 | 147 | 0.0 | 0.0 | 0.00 | 0.00 | 0.00 | 94 | 1010.3 |
| 20260905032238 | 26 | 147 | 0.0 | 0.0 | 0.00 | 0.00 | 0.00 | 95 | 1010.2 |
| 20260905031732 | 26 | 147 | 0.0 | 0.0 | 0.00 | 0.00 | 0.00 | 95 | 1010.3 |
| 20260905031229 | 26 | 147 | 0.0 | 0.0 | 0.00 | 0.00 | 0.00 | 94 | 1010.3 |
| 20260905030723 | 26 | 139 | 0.0 | 0.0 | 0.00 | 0.00 | 0.00 | 93 | 1010.3 |
| 20260905030218 | 26 | 127 | 0.0 | 0.0 | 0.00 | 0.00 | 0.00 | 93 | 1010.7 |
| 20260905025713 | 26 | 153 | 0.0 | 0.0 | 0.00 | 0.00 | 0.00 | 93 | 1010.7 |
| 20260905025209 | 26 | 145 | 0.0 | 0.0 | 0.00 | 0.00 | 0.00 | 92 | 1010.6 |
| 20260905024704 | 26 | 139 | 0.0 | 0.0 | 0.00 | 0.00 | 0.00 | 92 | 1010.4 |
| 20260905024200 | 27 | 153 | 0.0 | 0.0 | 0.00 | 0.00 | 0.00 | 91 | 1010.6 |
| 20260905023654 | 27 | 192 | 0.0 | 0.0 | 0.00 | 0.00 | 0.00 | 91 | 1010.4 |
| 20260905023149 | 27 | 147 | 0.0 | 0.0 | 0.00 | 0.00 | 0.00 | 91 | 1010.4 |
| 20260905022648 | 27 | 149 | 0.0 | 0.0 | 0.00 | 0.00 | 0.00 | 90 | 1010.4 |
| 20260905022144 | 27 | 147 | 0.0 | 0.0 | 0.00 | 0.00 | 0.00 | 90 | 1010.2 |
| 20260905021643 | 27 | 149 | 0.0 | 0.0 | 0.00 | 0.00 | 0.00 | 90 | 1010.4 |
| 20260905021139 | 27 | 147 | 0.0 | 0.0 | 0.00 | 0.00 | 0.00 | 89 | 1010.2 |
| 20260905020633 | 27 | 152 | 0.0 | 0.0 | 0.00 | 0.00 | 0.00 | 89 | 1010.0 |
| 20260905020128 | 27 | 149 | 0.0 | 0.0 | 0.00 | 0.00 | 0.00 | 89 | 1009.9 |
| 20260905015627 | 27 | 146 | 0.0 | 0.0 | 0.00 | 0.00 | 0.00 | 88 | 1010.0 |
| 20260905015121 | 27 | 192 | 0.0 | 0.0 | 0.00 | 0.00 | 0.00 | 88 | 1010.0 |
| 20260905014615 | 27 | 147 | 0.0 | 0.0 | 0.00 | 0.00 | 0.00 | 88 | 1010.0 |
| 20260905014111 | 27 | 147 | 0.0 | 1.6 | 0.00 | 0.00 | 0.00 | 88 | 1010.0 |
| 20260905013608 | 27 | 147 | 0.0 | 0.0 | 0.00 | 0.00 | 0.00 | 88 | 1009.6 |
| 20260905013103 | 27 | 147 | 0.0 | 0.0 | 0.00 | 0.00 | 0.00 | 88 | 1009.7 |
| 20260905012602 | 27 | 192 | 0.0 | 0.0 | 0.00 | 0.00 | 0.00 | 87 | 1009.6 |
| 20260905012100 | 27 | 192 | 0.0 | 0.0 | 0.00 | 0.00 | 0.00 | 87 | 1009.6 |
| 20260905011555 | 28 | 147 | 0.0 | 0.0 | 0.00 | 0.00 | 0.00 | 86 | 1009.4 |
| 20260905011051 | 28 | 147 | 0.0 | 0.0 | 0.00 | 0.00 | 0.00 | 86 | 1009.6 |
| 20260905010550 | 28 | 147 | 0.0 | 0.0 | 0.00 | 0.00 | 0.00 | 84 | 1009.7 |
| 20260905010047 | 28 | 134 | 0.0 | 0.0 | 0.00 | 0.00 | 0.00 | 83 | 1009.4 |
| 20260905005542 | 28 | 107 | 0.0 | 0.0 | 0.00 | 0.00 | 0.00 | 83 | 1009.2 |
| 20260905005038 | 29 | 104 | 0.0 | 0.0 | 0.00 | 0.00 | 0.00 | 82 | 1009.3 |
| 20260905004532 | 29 | 107 | 0.0 | 0.0 | 0.00 | 0.00 | 0.00 | 81 | 1009.2 |
| 20260905004027 | 30 | 101 | 0.0 | 1.6 | 0.00 | 0.00 | 0.00 | 80 | 1009.3 |
| 20260905003523 | 30 | 128 | 1.6 | 3.2 | 0.00 | 0.00 | 0.00 | 77 | 1009.1 |
| 20260905003019 | 30 | 101 | 0.0 | 1.6 | 0.00 | 0.00 | 0.00 | 77 | 1009.4 |
| 20260905002514 | 30 | 208 | 1.6 | 4.8 | 0.00 | 0.00 | 0.00 | 75 | 1009.1 |
| 20260905002008 | 31 | 200 | 1.6 | 4.8 | 0.00 | 0.00 | 0.00 | 74 | 1009.1 |
| 20260905001503 | 31 | 138 | 4.8 | 8.0 | 0.00 | 0.00 | 0.00 | 74 | 1009.2 |
| 20260905000957 | 30 | 110 | 1.6 | 4.8 | 0.00 | 0.00 | 0.00 | 74 | 1009.4 |
| 20260905000454 | 30 | 121 | 0.0 | 0.0 | 0.00 | 0.00 | 0.00 | 76 | 1008.9 |
| 20260904235949 | 30 | 180 | 1.6 | 3.2 | 0.00 | 0.00 | 0.00 | 75 | 1009.0 |
| 20260904235444 | 31 | 168 | 4.8 | 4.8 | 0.00 | 0.00 | 0.00 | 75 | 1009.0 |
| 20260904234944 | 31 | 191 | 4.8 | 4.8 | 0.00 | 0.00 | 0.00 | 74 | 1009.3 |
| 20260904234443 | 31 | 191 | 3.2 | 4.8 | 0.00 | 0.00 | 0.00 | 74 | 1009.2 |
| 20260904233940 | 31 | 271 | 3.2 | 4.8 | 0.00 | 0.00 | 0.00 | 74 | 1009.0 |
| 20260904233435 | 31 | 167 | 3.2 | 4.8 | 0.00 | 0.00 | 0.00 | 74 | 1009.1 |
| 20260904232931 | 31 | 154 | 1.6 | 4.8 | 0.00 | 0.00 | 0.00 | 74 | 1009.1 |
| 20260904232427 | 31 | 205 | 4.8 | 4.8 | 0.00 | 0.00 | 0.00 | 74 | 1009.0 |
| 20260904231924 | 31 | 119 | 1.6 | 3.2 | 0.00 | 0.00 | 0.00 | 74 | 1009.2 |
| 20260904231424 | 31 | 142 | 1.6 | 3.2 | 0.00 | 0.00 | 0.00 | 73 | 1009.4 |
| 20260904230919 | 31 | 166 | 1.6 | 1.6 | 0.00 | 0.00 | 0.00 | 74 | 1009.3 |
| 20260904230418 | 32 | 145 | 1.6 | 4.8 | 0.00 | 0.00 | 0.00 | 72 | 1009.4 |
| 20260904225913 | 32 | 159 | 4.8 | 8.0 | 0.00 | 0.00 | 0.00 | 71 | 1009.5 |
| 20260904225411 | 32 | 176 | 3.2 | 8.0 | 0.00 | 0.00 | 0.00 | 72 | 1009.4 |
| 20260904224905 | 32 | 306 | 1.6 | 3.2 | 0.00 | 0.00 | 0.00 | 72 | 1009.2 |
| 20260904224401 | 32 | 156 | 1.6 | 3.2 | 0.00 | 0.00 | 0.00 | 72 | 1009.3 |
| 20260904223855 | 32 | 150 | 1.6 | 8.0 | 0.00 | 0.00 | 0.00 | 71 | 1009.3 |
| 20260904223354 | 32 | 159 | 3.2 | 8.0 | 0.00 | 0.00 | 0.00 | 69 | 1009.5 |
| 20260904222850 | 33 | 141 | 8.0 | 11.3 | 0.00 | 0.00 | 0.00 | 68 | 1009.5 |
| 20260904222345 | 33 | 162 | 3.2 | 4.8 | 0.00 | 0.00 | 0.00 | 68 | 1009.3 |
| 20260904221845 | 33 | 297 | 4.8 | 9.7 | 0.00 | 0.00 | 0.00 | 67 | 1009.3 |
| 20260904221340 | 34 | 102 | 0.0 | 4.8 | 0.00 | 0.00 | 0.00 | 66 | 1009.3 |
| 20260904220835 | 33 | 121 | 3.2 | 8.0 | 0.00 | 0.00 | 0.00 | 66 | 1009.3 |
| 20260904220334 | 34 | 158 | 3.2 | 3.2 | 0.00 | 0.00 | 0.00 | 64 | 1009.5 |
| 20260904215830 | 33 | 119 | 1.6 | 3.2 | 0.00 | 0.00 | 0.00 | 66 | 1009.4 |
| 20260904215325 | 33 | 137 | 3.2 | 4.8 | 0.00 | 0.00 | 0.00 | 65 | 1009.3 |
| 20260904214821 | 33 | 137 | 3.2 | 12.9 | 0.00 | 0.00 | 0.00 | 64 | 1009.4 |
| 20260904214316 | 34 | 143 | 3.2 | 4.8 | 0.00 | 0.00 | 0.00 | 63 | 1009.1 |
| 20260904213814 | 34 | 136 | 1.6 | 3.2 | 0.00 | 0.00 | 0.00 | 65 | 1009.3 |
| 20260904213309 | 33 | 138 | 3.2 | 8.0 | 0.00 | 0.00 | 0.00 | 64 | 1009.2 |
| 20260904212806 | 34 | 136 | 4.8 | 11.3 | 0.00 | 0.00 | 0.00 | 65 | 1009.3 |
| 20260904212306 | 33 | 134 | 3.2 | 8.0 | 0.00 | 0.00 | 0.00 | 65 | 1009.1 |
| 20260904211801 | 33 | 140 | 3.2 | 9.7 | 0.00 | 0.00 | 0.00 | 63 | 1009.1 |
| 20260904211255 | 34 | 138 | 3.2 | 3.2 | 0.00 | 0.00 | 0.00 | 62 | 1009.1 |
| 20260904210751 | 33 | 138 | 3.2 | 8.0 | 0.00 | 0.00 | 0.00 | 62 | 1009.1 |
| 20260904210245 | 33 | 141 | 1.6 | 9.7 | 0.00 | 0.00 | 0.00 | 64 | 1009.3 |
| 20260904205741 | 33 | 141 | 3.2 | 8.0 | 0.00 | 0.00 | 0.00 | 63 | 1009.2 |
| 20260904205237 | 33 | 152 | 4.8 | 8.0 | 0.00 | 0.00 | 0.00 | 64 | 1009.1 |
| 20260904204734 | 33 | 143 | 1.6 | 11.3 | 0.00 | 0.00 | 0.00 | 64 | 1009.4 |
| 20260904204229 | 34 | 131 | 3.2 | 8.0 | 0.00 | 0.00 | 0.00 | 63 | 1009.5 |
| 20260904203725 | 33 | 138 | 1.6 | 8.0 | 0.00 | 0.00 | 0.00 | 63 | 1009.7 |
| 20260904203221 | 34 | 137 | 3.2 | 8.0 | 0.00 | 0.00 | 0.00 | 63 | 1009.5 |
| 20260904202717 | 33 | 138 | 1.6 | 4.8 | 0.00 | 0.00 | 0.00 | 62 | 1009.9 |
| 20260904202213 | 33 | 138 | 4.8 | 9.7 | 0.00 | 0.00 | 0.00 | 64 | 1009.8 |
| 20260904201708 | 33 | 154 | 4.8 | 8.0 | 0.00 | 0.00 | 0.00 | 62 | 1009.8 |
| 20260904201208 | 34 | 151 | 6.4 | 9.7 | 0.00 | 0.00 | 0.00 | 62 | 1010.0 |
| 20260904200703 | 34 | 138 | 1.6 | 4.8 | 0.00 | 0.00 | 0.00 | 61 | 1010.2 |
| 20260904200157 | 34 | 145 | 1.6 | 4.8 | 0.00 | 0.00 | 0.00 | 61 | 1010.0 |
| 20260904195656 | 33 | 135 | 4.8 | 8.0 | 0.00 | 0.00 | 0.00 | 61 | 1010.1 |
| 20260904195150 | 33 | 138 | 1.6 | 4.8 | 0.00 | 0.00 | 0.00 | 63 | 1010.3 |
| 20260904194644 | 33 | 137 | 9.7 | 14.5 | 0.00 | 0.00 | 0.00 | 63 | 1010.3 |
| 20260904194138 | 33 | 143 | 3.2 | 9.7 | 0.00 | 0.00 | 0.00 | 63 | 1010.4 |
| 20260904193633 | 33 | 141 | 3.2 | 4.8 | 0.00 | 0.00 | 0.00 | 61 | 1010.5 |
| 20260904193129 | 33 | 136 | 3.2 | 4.8 | 0.00 | 0.00 | 0.00 | 62 | 1010.8 |
| 20260904192629 | 33 | 138 | 1.6 | 4.8 | 0.00 | 0.00 | 0.00 | 63 | 1010.5 |
| 20260904192125 | 33 | 138 | 3.2 | 8.0 | 0.00 | 0.00 | 0.00 | 63 | 1010.9 |
| 20260904191622 | 32 | 126 | 4.8 | 8.0 | 0.00 | 0.00 | 0.00 | 65 | 1010.5 |
| 20260904191118 | 32 | 146 | 4.8 | 9.7 | 0.00 | 0.00 | 0.00 | 64 | 1010.6 |
| 20260904190613 | 32 | 138 | 3.2 | 4.8 | 0.00 | 0.00 | 0.00 | 65 | 1010.8 |
| 20260904190109 | 32 | 139 | 0.0 | 8.0 | 0.00 | 0.00 | 0.00 | 66 | 1010.8 |